Regional Weather Roundup
Issued by NWS Grand Forks, ND

Home | Current Version | Previous Version | Graphics & Text | Print | Product List | Glossary Off
Versions: 1 2 3 4 5 6 7 8 9 10 11 12 13 14 15 16 17 18 19 20 21 22 23 24 25 26 27 28 29 30 31 32 33 34 35 36 37 38 39 40 41 42 43 44 45 46 47 48 49 50

000
ASUS43 KFGF 202210
RWRFGF
PRAIRIE TO PINES  WEATHER ROUNDUP
NATIONAL WEATHER SERVICE EASTERN NORTH DAKOTA/GRAND FORKS ND
500 PM CDT SUN AUG 20 2017

 **SATELLITE DATA USED TO AUGMENT SKY COVER AT AUTOMATED STATIONS**
 *****  WEATHER ACROSS EASTERN NORTH DAKOTA  *****

CITY           SKY/WX    TMP DP  RH WIND       PRES   REMARKS
GRAND FORKS    FAIR      79  47  32 NW9       29.97R
GRAND FRKS AFB FAIR      77  42  28 N12G18    29.98S
DEVILS LAKE    FAIR      73  42  32 NW10      30.01F
FARGO          FAIR      75  48  38 W7        29.99S
WAHPETON ARPT  FAIR      70  50  49 NW8       30.02R
$$

 ***** WEATHER ACROSS CENTRAL AND WESTERN NORTH DAKOTA  *****

CITY           SKY/WX    TMP DP  RH WIND       PRES   REMARKS
BISMARCK       LGT RAIN  68  52  56 S5        30.04R
MINOT          FAIR      78  36  21 NW3       29.99F
JAMESTOWN      FAIR      73  49  42 N7        30.01F
MINOT AFB      FAIR      76  35  22 W8        29.97F
GARRISON         N/A     74  42  31 S10       30.01F
WILLISTON      FAIR      79  34  19 CALM      29.99F
DICKINSON      PTSUNNY   72  44  36 E7        30.02F
HETTINGER      FAIR      71  47  42 E15       30.05F
$$

 *****  OTHER AIRPORT OBSERVATIONS IN OUR AREA  *****

CITY           SKY/WX    TMP DP  RH WIND       PRES   REMARKS
WALHALLA       FAIR      75  72  88 W8G17     29.96S
GRAFTON AIRPOR NOT AVBL
VALLEY CITY AR NOT AVBL
CANDO          FAIR      75  43  31 NW7G15    30.01F
CAVALIER APRT  FAIR      75  45  33 W6G14     29.96S
GWINNER        CLEAR     68  55  64 CALM      30.02F
ROLLA          FAIR      73  43  33 VRB6G13   30.01F
 ***** THE ABOVE OBSERVATIONS ARE NON NWS ARE NOT QUALITY
       CONTROLLED AND MAY MIS-REPORT RAIN FOR SNOW...
$$

  *****  WEATHER ACROSS NORTHERN MINNESOTA  *****

CITY           SKY/WX    TMP DP  RH WIND       PRES   REMARKS
FLAG ISLAND    FAIR      73  48  40 NW5       29.90R HAZE
WARROAD        FAIR      75  48  38 W15       29.94R
ROSEAU         FAIR      79  45  29 W12G17    29.94R
HALLOCK        FAIR      79  34  19 NW14G20   29.95S
THF RVR FALLS  FAIR      76  43  30 NW13      29.98R
BAUDETTE       FAIR      76  47  35 NW12      29.93R
WASKISH        PTSUNNY   75  52  43 W10       29.94S
CROOKSTON      FAIR      77  45  31 N8        29.97F
STEPHEN NDAWN    N/A     77  45  31 NW10        N/A
GREENBUSH NDAW   N/A     75  43  31 NW12        N/A
$$
  *****  WEATHER ACROSS CENTRAL AND WEST MINNESOTA  *****

CITY           SKY/WX    TMP DP  RH WIND       PRES   REMARKS
FOSSTON        FAIR      73  41  31 W7        29.98F
BEMIDJI        FAIR      75  46  35 W8        29.97S
PARK RAPIDS    FAIR      75  48  38 NW10      29.99R
ELBOW LAKE     FAIR      72  58  61 NW7       30.01S HAZE
WADENA         FAIR      73  54  49 NW5       29.99R
DETROIT LAKES  FAIR      72  48  43 NW10      30.01S
MOORHEAD       FAIR      72  54  53 NW5       30.00S
FERGUS FALLS   FAIR      70  55  60 NW6       30.00R
MORRIS MN      FAIR      72  63  73 W6        30.01R
STAPLES        FAIR      75  52  43 NW6       29.98S
$$
  *****  WEATHER ELSEWHERE ACROSS MINNESOTA  *****

CITY           SKY/WX    TMP DP  RH WIND       PRES   REMARKS
DULUTH         PTSUNNY   75  57  53 W10       29.93R
INTRNTL FALLS  FAIR      74  52  46 W10       29.91R
ELY            FAIR      73  52  46 W7G16     29.90S
CLOQUET        FAIR      75  54  46 W7        29.94S
WHEATON        FAIR      72  55  56 W7        30.05R
BRAINERD       FAIR      74  57  55 W8        29.98R
HIBBING        FAIR      72  54  53 W6        29.94R
ALEXANDRIA     NOT AVBL
SAINT CLOUD    FAIR      76  65  68 NW9       29.96R
MINNEAPOLIS    FAIR      85  67  54 W3        29.92F
$$

  *****  WEATHER ACROSS SOUTH DAKOTA  *****

CITY           SKY/WX    TMP DP  RH WIND       PRES   REMARKS
SIOUX FALLS    PTSUNNY   80  69  69 NE14      29.97S
BROOKINGS      FAIR      75  60  59 NE9       30.02R
WATERTOWN      FAIR      71  56  58 N12       30.04R
HURON          FAIR      76  56  49 NE16      30.00F
SISSETON         N/A     72  59  63 NW6       30.03R
ABERDEEN       FAIR      71  56  58 SE8       30.02F
MITCHELL       FAIR      81  65  58 N15       29.98S
PIERRE         FAIR      79  47  32 E15       29.99F
MOBRIDGE       PTSUNNY   73  49  42 NE12      30.02S
RAPID CITY     FAIR      81  51  35 S13       30.01F
$$

  *****  SOME WEATHER IN NEARBY STATES *****

CITY           SKY/WX    TMP DP  RH WIND       PRES   REMARKS
GLASGOW MT     FAIR      80  35  19 S12G21    29.92F
GREAT FALLS MT FAIR      75  20  12 N3        30.00F
CHEYENNE WY    FAIR      82  38  20 E12       30.14F
SCOTTSBLUFF NE FAIR      88  55  32 SE14      30.01F
OMAHA NE       FAIR      84  67  56 SE12      29.94F
DES MOINES IA  PTSUNNY   81  66  60 SW8       29.97R
DAVENPORT IA   PTSUNNY   78  68  71 E9        30.02R
CHICAGO IL     CLOUDY    84  67  56 SW8       30.00S
EAU CLAIRE WI  FAIR      84  65  52 SW12      29.93R
LA CROSSE WI   FAIR      89  65  44 NW5       29.94R HX  91
$$

  *****  SOME NATIONAL WEATHER *****

CITY           SKY/WX    TMP DP  RH WIND       PRES   REMARKS
LA GUARDIA NY  FAIR      83  60  45 NW13      30.06R
RALEIGH NC     FAIR      92  65  40 E8        30.09R HX  94
ATLANTA GA     FAIR      91  66  43 E9        30.07S HX  93
NEW ORLEANS LA FAIR      93  71  48 NE9       29.98S HX 100
OKLAHOMA CITY  FAIR      90  71  53 S15       29.95F HX  96
ALBUQUERQUE NM CLOUDY    72  54  53 S16       30.17F
SALT LAKE CITY FAIR      95  41  15 N13G21    29.97F HX  91
LOS ANGELES CA FAIR      75  61  61 W15       29.90F
BOISE ID       FAIR      85  35  16 NW13G23   29.99F
SEATTLE WA     PTSUNNY   75  52  44 W9        30.13F
$$

*** WEATHER ACROSS MANITOBA...SASKATCHEWAN AND ONTARIO ***
                ***ONTARIO***

CITY           SKY/WX    TMP DP  RH WIND       PRES   REMARKS
GERALDTON      PTSUNNY   66  66 100 W6        29.77R
THUNDER BAY    PTSUNNY   77  64  65 W10       29.79R
SIOUX LOOKOUT  PTSUNNY   75  46  35 NW15G24   29.83R
TORONTO        MOSUNNY   81  59  47 W15       30.04R
BIG TROUT LK   SUNNY     72  50  46 W17G25    29.63R
PICKLE LAKE    MOSUNNY   75  46  35 W16G24    29.74S
DRYDEN         MOSUNNY   75  43  31 W16       29.86R
KENORA         PTSUNNY   73  41  31 NW13G20   29.90S
$$
                *** MANITOBA***

CITY           SKY/WX    TMP DP  RH WIND       PRES   REMARKS
BRANDON        MOSUNNY   77  41  27 W13G22    29.96S
DAUPHIN        PTSUNNY   75  43  31 W15G23    29.90S
ISLAND LAKE    PTSUNNY   70  48  46 W10       29.70S
PILOT MOUND      N/A     73  37  27 W8          N/A
THE PAS        MOSUNNY   66  46  48 SW6       29.76S
THOMPSON       LGT RAIN  59  54  82 W9        29.65R
WINNIPEG       MOSUNNY   77  43  29 W10G18    29.92S
LYNN LAKE      PTSUNNY   61  48  63 MISG      29.65R
CHURCHILL      LGT RAIN  55  54  94 E9        29.52R FOG
GILLAM         PTSUNNY   68  50  52 W16G26    29.54R
$$
                ***SASKATCHEWAN***

CITY           SKY/WX    TMP DP  RH WIND       PRES   REMARKS
ESTEVAN        CLOUDY    73  34  23 W6        29.98F
KINDERSLEY     PTSUNNY   72  39  30 VRB7      29.92F
LLOYDMINSTER   PTSUNNY   63  45  51 W17       29.91F
PRINCE ALBERT  PTSUNNY   66  41  39 W16G24    29.87F
REGINA         PTSUNNY   70  36  28 S3        29.97F
YORKTON        MOSUNNY   68  43  40 W10G18    29.96F
N. BATTLEFORD  SUNNY     66  43  42 W13       29.92F
LA RONGE       MOSUNNY   70  43  37 W17G29    29.75S
SASKATOON      PTSUNNY   68  43  40 W8G17     29.94F
SWIFT CURRENT  PTSUNNY   77  36  22 S12G22    29.88F
$$
NOTE: THESE ARE AUTOMATED STATIONS WITH LIMITED QUALITY CONTROL
      "FAIR" INDICATES FEW OR NO CLOUDS BELOW 12,000 FEET WITH NO
      SIGNIFICANT WEATHER AND/OR OBSTRUCTIONS TO VISIBILITY.
      SKY/WX - SKY CONDITION AND SIGNIFICANT WEATHER.
      TMP - AIR TEMPERATURE.    DP   - DEWPOINT TEMPERATURE.
      RH  - RELATIVE HUMIDITY.  PRES - PRESSURE.
      HX  - HEAT INDEX.         WCI  - WIND CHILL INDEX.
$




USA.gov is the U.S. government's official web portal to all federal, state and local government web resources and services.